Flight Information

DEPARTURE
KALISPELL, MT
Elevation:
2976
Runways:
2/20 - 9007x150 - ASPH-G
12/30 - 3510x75 - ASPH-G
ATIS:
132.625
Ground:
121.6
Tower:
GLACIER TOWER 124.55
DESTINATION
,
Elevation:
TPA:
1000 (est.)


6351.2 NM71° True-18° Var53° HDG

Flight Plan:
(click to file on line)

1. Type
2. Aircraft Identification
3. Aircraft Type / Special Equipment
4. True Airspeed
kts
5. Departure Airport
(ICAO code)
6. Arriving Airport
(ICAO code)
7. Cruising Altitude
ft
8. Alternate Airport
(ICAO code)
9. Route of Flight
10. Remarks


00:00:00 Departure ATIS: Destination ATIS:

Clearance Limit:
Route:
Altitude: Expect in minutes
Frequency:
Transponder: (7500 Hijack / 7600 Lost Comms / 7700 Emergency)


KGPI 211555Z 00000KT 10SM FEW001 06/04 A3043 RMK AO2 SLP318 T00560044
Time: 2021-09-21T15:55:00Z
1632242085
Winds: calm
Visibility: 10.0 sm
Clouds (AGL): FEW 100
Temperature: 5.6 C
Dew Point: 4.4 C
Pressure: 30.431103 in Hgbr


Notes:

Data extracted from FAA Digital Chart Supplement. Effective: 0901Z Thursday, AUG 12, 2021 to 0901Z Thursday, OCT 7, 2021
Current ATIS data is provided courtisy of PilotEdge.